[[{"header":{"parameterUnit":"m.s-1","parameterCategory":2,"la1":30.2991,"la2":30.254,"lo1":-89.0895,"lo2":-89.0444,"dx":0.0017,"dy":0.0017,"nx":28,"ny":28,"refTime":"2023-01-22T03:00:00:Z","depth":"0","parameterNumber":2,"parameterNumberName":"U-component_of_CURRENTS"},"data":[0,0,0,0,0,0,0,0,0,0,0,0,0,0,0,0,0,0,0,0,0,0,0,0,0,0,0,0,0,0,0,0,0,0,0,0,0,0,0,0,0,0,0,0,0,0,0,0,0,0,0,0,0,0,0,0,0,0,-0.2899,-0.2899,0,-0.2934,-0.2934,-0.2934,-0.2905,-0.2904,-0.2903,-0.2902,-0.2875,-0.2875,-0.2876,0,0,0,0,0,0,0,0,0,0,0,0,0,-0.2802,-0.2803,-0.2899,-0.2899,-0.29,-0.2934,-0.2934,-0.2934,-0.2905,-0.2904,-0.2903,-0.2902,-0.2875,-0.2875,-0.2876,0,0,0,0,0,0,0,0,0,0,0,0,0,-0.2838,-0.2804,-0.2898,-0.2892,-0.2892,-0.2934,-0.2934,-0.2934,-0.2906,-0.2904,-0.2903,-0.2901,-0.2875,-0.2875,-0.2876,-0.2907,0,0,-0.2877,-0.2877,0,0,0,0,0,0,0,0,-0.2836,-0.2842,-0.2892,-0.2892,-0.2892,-0.2916,-0.289,-0.2923,-0.2906,-0.2897,-0.2902,-0.2901,-0.2886,-0.2885,-0.2892,-0.2905,-0.2904,-0.2877,-0.2877,-0.2877,-0.2877,0,0,0,0,0,0,0,-0.2834,-0.284,-0.291,-0.2893,-0.2893,-0.2885,-0.2889,-0.2896,-0.2896,-0.2898,-0.2897,-0.2905,-0.2885,-0.2892,-0.2891,-0.2904,-0.2877,-0.2877,-0.2877,-0.2877,-0.2919,-0.292,0,0,0,0,0,0,-0.2837,-0.2838,-0.2909,-0.2911,-0.2863,-0.2889,-0.2892,-0.2908,-0.2897,-0.2896,-0.2907,-0.2904,-0.2892,-0.2891,-0.289,-0.2918,-0.2877,-0.2877,-0.2877,-0.2918,-0.2919,-0.292,0,0,0,0,0,0,-0.2835,-0.2844,-0.2907,-0.2877,-0.2885,-0.2892,-0.2909,-0.2909,-0.291,-0.2905,-0.2901,-0.2907,-0.2891,-0.289,-0.29,-0.2917,-0.2877,-0.2878,-0.2917,-0.2919,-0.292,-0.2979,0,0,0,0,0,0,-0.2832,-0.2843,-0.285,-0.2877,-0.2887,-0.2936,-0.2911,-0.2911,-0.2919,-0.2916,-0.2905,-0.2901,-0.289,-0.29,-0.2901,-0.2917,-0.2878,-0.2916,-0.2918,-0.2919,-0.2976,-0.2983,-0.2988,0,0,0,0,0,-0.2829,-0.2848,-0.285,-0.2859,-0.2898,-0.2938,-0.2942,-0.2939,-0.2921,-0.2932,-0.2923,-0.2901,-0.2911,-0.2902,-0.2902,-0.2918,-0.2915,-0.2917,-0.2919,-0.2974,-0.2981,-0.2988,0,0,0,0,0,0,-0.2805,-0.2848,-0.2851,-0.288,-0.2909,-0.2934,-0.2942,-0.2943,-0.2946,-0.2936,-0.292,-0.2917,-0.2934,-0.292,-0.2909,-0.2935,-0.2907,-0.2909,-0.2948,-0.2956,-0.2961,-0.2973,-0.2878,0,0,0,0,0,-0.2807,-0.283,-0.2871,-0.2891,-0.2908,-0.2924,-0.2937,-0.2942,-0.2953,-0.2952,-0.2946,-0.2939,-0.2946,-0.2944,-0.2949,-0.2966,-0.2951,-0.2974,-0.298,-0.2985,-0.2995,-0.2994,-0.3001,-0.2927,-0.2927,-0.2927,0,0,-0.28,-0.2828,-0.2838,-0.2887,-0.2904,-0.2943,-0.2927,-0.2953,-0.298,-0.2949,-0.2971,-0.2964,-0.2957,-0.2978,-0.2982,-0.2965,-0.2997,-0.2988,-0.2992,-0.2999,-0.2997,-0.3004,-0.301,-0.2929,-0.2929,-0.2928,0,0,-0.2806,-0.2827,-0.2852,-0.2887,-0.2927,-0.2948,-0.2958,-0.299,-0.2996,-0.3024,-0.3008,-0.3016,-0.3019,-0.3025,-0.3026,-0.3069,-0.3033,-0.306,-0.3096,-0.3096,-0.3102,-0.3107,-0.3091,-0.3094,-0.3058,-0.3058,-0.3058,0,-0.2792,-0.2836,-0.2864,-0.2906,-0.2933,-0.2953,-0.299,-0.3015,-0.3044,-0.3054,-0.3034,-0.3053,-0.3047,-0.3078,-0.3091,-0.3084,-0.3068,-0.307,-0.3104,-0.3109,-0.3113,-0.3095,-0.3098,-0.3061,-0.3061,-0.3061,-0.306,0,-0.2827,-0.2863,-0.2882,-0.2942,-0.2978,-0.3012,-0.306,-0.3086,-0.309,-0.3107,-0.3133,-0.313,-0.3134,-0.3137,-0.3128,-0.3159,-0.3132,-0.3116,-0.3086,-0.3124,-0.3103,-0.3105,-0.3066,-0.3065,-0.3064,-0.3063,0,0,-0.2783,-0.2885,-0.2889,-0.2923,-0.2999,-0.303,-0.3088,-0.314,-0.3171,-0.3186,-0.3216,-0.3231,-0.3216,-0.3217,-0.3205,-0.321,-0.3227,-0.3177,-0.3175,-0.3162,-0.3211,-0.3151,-0.3147,-0.3211,-0.3212,-0.3212,-0.3181,0,-0.2793,-0.2869,-0.2923,-0.2988,-0.3029,-0.3082,-0.3139,-0.319,-0.3217,-0.3255,-0.3257,-0.3277,-0.3251,-0.3249,-0.3254,-0.3243,-0.3235,-0.3236,-0.3175,-0.3174,-0.3117,-0.3149,-0.3054,-0.3015,-0.3183,-0.3183,-0.3183,0,-0.2802,-0.2853,-0.2918,-0.3016,-0.3039,-0.3084,-0.3163,-0.3216,-0.3284,-0.3305,-0.3324,-0.3326,-0.3348,-0.3311,-0.3302,-0.33,-0.3259,-0.3241,-0.3239,-0.3166,-0.3118,-0.3005,-0.3011,-0.2981,-0.3186,-0.3186,-0.3185,0,-0.2741,-0.2846,-0.2891,-0.2925,-0.3042,-0.3075,-0.3131,-0.3214,-0.3257,-0.3323,-0.3347,-0.3376,-0.3371,-0.3354,-0.3311,-0.3306,-0.3287,-0.3272,-0.3178,-0.3172,-0.3071,-0.3056,-0.3043,-0.3253,-0.3253,-0.3254,-0.3254,0,-0.2722,-0.2756,-0.2865,-0.2888,-0.2947,-0.304,-0.3099,-0.3165,-0.3252,-0.3293,-0.3349,-0.3372,-0.3379,-0.3367,-0.3331,-0.3258,-0.3294,-0.3192,-0.3166,-0.3088,-0.3075,-0.3027,-0.3041,-0.3252,-0.3253,-0.3253,-0.3253,0,-0.2639,-0.2713,-0.2771,-0.2885,-0.2917,-0.2951,-0.3066,-0.3109,-0.3204,-0.3258,-0.3275,-0.3359,-0.3351,-0.3342,-0.3312,-0.3261,-0.316,-0.317,-0.3072,-0.3036,-0.2926,-0.2947,-0.2894,-0.2805,-0.3077,-0.3075,-0.3074,0,-0.2603,-0.2624,-0.2734,-0.2754,-0.2798,-0.2868,-0.2915,-0.3051,-0.3095,-0.3234,-0.3243,-0.3287,-0.329,-0.3247,-0.3182,-0.3112,-0.3079,-0.2971,-0.2953,-0.2915,-0.292,-0.2918,-0.2846,-0.2839,-0.2836,-0.2834,-0.2831,0,-0.2515,-0.2553,-0.2588,-0.2645,-0.2691,-0.275,-0.2825,-0.2869,-0.3016,-0.3078,-0.3153,-0.3182,-0.3176,-0.3091,-0.3012,-0.2949,-0.2907,-0.2915,-0.2903,-0.2762,-0.2732,-0.2634,-0.2863,-0.2809,-0.2811,-0.2813,-0.2814,-0.2815,-0.242,-0.2426,-0.2471,-0.2509,-0.2559,-0.2596,-0.2593,-0.2697,-0.2761,-0.2829,-0.297,-0.2991,-0.2996,-0.2889,-0.283,-0.2701,-0.273,-0.2623,-0.2659,-0.2666,-0.2563,-0.2739,-0.2642,-0.2643,-0.2644,-0.2645,-0.2646,0,-0.2297,-0.2312,-0.2335,-0.237,-0.2357,-0.2438,-0.2494,-0.2469,-0.2485,-0.2623,-0.2675,-0.2757,-0.2682,-0.2689,-0.2604,-0.2488,-0.2408,-0.2417,-0.2399,-0.234,-0.251,-0.2482,-0.2311,-0.2311,-0.2311,-0.2311,-0.2311,-0.2311,-0.2226,-0.2194,-0.2212,-0.2144,-0.2159,-0.2089,-0.208,-0.2082,-0.214,-0.2206,-0.2311,-0.247,-0.2495,-0.2667,-0.2528,-0.24,-0.2312,-0.224,-0.2236,-0.2384,-0.2406,-0.2427,-0.2403,-0.2219,-0.2219,-0.1978,-0.1977,-0.1975]},{"header":{"parameterUnit":"m.s-1","parameterCategory":2,"la1":30.2991,"la2":30.254,"lo1":-89.0895,"lo2":-89.0444,"dx":0.0017,"dy":0.0017,"nx":28,"ny":28,"refTime":"2023-01-22T03:00:00:Z","depth":"0","parameterNumber":3,"parameterNumberName":"V-component_of_CURRENTS"},"data":[0,0,0,0,0,0,0,0,0,0,0,0,0,0,0,0,0,0,0,0,0,0,0,0,0,0,0,0,0,0,0,0,0,0,0,0,0,0,0,0,0,0,0,0,0,0,0,0,0,0,0,0,0,0,0,0,0,0,-0.0321,-0.032,0,-0.022,-0.0219,-0.0217,-0.0148,-0.0148,-0.0148,-0.0147,-0.0014,-0.0011,-0.0007,0,0,0,0,0,0,0,0,0,0,0,0,0,-0.0388,-0.0388,-0.0321,-0.032,-0.0319,-0.022,-0.0218,-0.0217,-0.0148,-0.0148,-0.0147,-0.0147,-0.0015,-0.0011,-0.0007,0,0,0,0,0,0,0,0,0,0,0,0,0,-0.0328,-0.0388,-0.0321,-0.0274,-0.0269,-0.022,-0.0218,-0.0216,-0.0148,-0.0148,-0.0147,-0.0147,-0.0016,-0.0011,-0.0007,0.0015,0,0,0.0009,0.0011,0,0,0,0,0,0,0,0,-0.0332,-0.0326,-0.0282,-0.0278,-0.0272,-0.0198,-0.0193,-0.0138,-0.0148,-0.0192,-0.0147,-0.0147,-0.0074,-0.0065,-0.0044,0.0022,0.0027,0.0009,0.0012,0.0014,0.0016,0,0,0,0,0,0,0,-0.0336,-0.0329,-0.0278,-0.0281,-0.0275,-0.0236,-0.0227,-0.0182,-0.0134,-0.0188,-0.0183,-0.0176,-0.0071,-0.0049,-0.004,0.0029,0.0009,0.0013,0.0016,0.0018,0.0138,0.0138,0,0,0,0,0,0,-0.0357,-0.0334,-0.0282,-0.0276,-0.0304,-0.0236,-0.0226,-0.022,-0.0135,-0.0123,-0.0176,-0.0173,-0.0057,-0.0046,-0.0035,-0.0002,0.0014,0.0019,0.0022,0.0138,0.0138,0.0138,0,0,0,0,0,0,-0.0359,-0.0354,-0.0286,-0.0304,-0.0293,-0.0236,-0.023,-0.0219,-0.0198,-0.0127,-0.0114,-0.0168,-0.0056,-0.0042,0.0003,0.0004,0.0021,0.0025,0.0138,0.0138,0.0138,0.0064,0,0,0,0,0,0,-0.0362,-0.0355,-0.0361,-0.0306,-0.0293,-0.0267,-0.023,-0.0217,-0.0195,-0.019,-0.0115,-0.0102,-0.0055,-0.0005,0.0008,0.0011,0.0029,0.0137,0.0138,0.0138,0.0066,0.0061,0.0058,0,0,0,0,0,-0.0365,-0.0377,-0.0361,-0.0355,-0.0302,-0.0267,-0.0257,-0.0213,-0.0196,-0.0191,-0.0139,-0.0105,0.0007,-0.0001,0.0014,0.0019,0.0137,0.0138,0.0138,0.0068,0.0062,0.0058,0,0,0,0,0,0,-0.0407,-0.0369,-0.0352,-0.0351,-0.0317,-0.0257,-0.0251,-0.0221,-0.0175,-0.0171,-0.0103,-0.0086,-0.0046,-0.0003,-0.0014,0.0056,0.0078,0.0082,0.002,0.0015,0.0011,-0.0003,0.0033,0,0,0,0,0,-0.0422,-0.0422,-0.0374,-0.0375,-0.0362,-0.0309,-0.029,-0.0261,-0.0214,-0.0193,-0.014,-0.0082,-0.0032,-0.0002,0.0046,0.0083,0.0132,0.0097,0.0093,0.0089,0.0088,0.0161,0.0163,0.014,0.014,0.014,0,0,-0.0439,-0.0419,-0.0418,-0.0385,-0.0355,-0.0343,-0.0296,-0.0276,-0.026,-0.0186,-0.0151,-0.0098,-0.0026,0.0015,0.0037,0.0051,0.0121,0.009,0.0085,0.0087,0.0161,0.0164,0.0166,0.014,0.014,0.014,0,0,-0.048,-0.0456,-0.0472,-0.0446,-0.0412,-0.0375,-0.0375,-0.0319,-0.0288,-0.0251,-0.0191,-0.0139,-0.0066,-0.0009,0.0028,0.0032,0.0093,0.0046,0.0019,0.0088,0.0091,0.0094,0.0153,0.0162,0.0048,0.0048,0.0048,0,-0.0505,-0.0514,-0.0471,-0.0475,-0.046,-0.0396,-0.0403,-0.0361,-0.0297,-0.0269,-0.0253,-0.013,-0.0076,-0.0007,-0.0006,0.0022,0.0068,0.0028,0.0082,0.0086,0.009,0.015,0.0161,0.0044,0.0045,0.0045,0.0045,0,-0.0551,-0.0557,-0.0563,-0.0547,-0.0523,-0.0519,-0.0458,-0.0429,-0.0387,-0.0335,-0.0266,-0.0184,-0.0109,-0.0083,-0.0044,0.0015,0.0039,0.0063,0.0089,0.0087,0.0152,0.0164,0.0039,0.004,0.0041,0.0042,0,0,-0.061,-0.0603,-0.0604,-0.0612,-0.0562,-0.055,-0.0519,-0.0468,-0.0443,-0.0369,-0.0324,-0.0233,-0.0179,-0.0133,-0.0067,-0.0006,0.0057,0.0032,0.0038,0.0081,0.0206,0.0251,0.0269,0.0089,0.0091,0.0092,0.0237,0,-0.0663,-0.07,-0.067,-0.0691,-0.0702,-0.0632,-0.0608,-0.0548,-0.0482,-0.0418,-0.0313,-0.0252,-0.0198,-0.0165,-0.0092,0.0026,0.0087,0.0015,0.0211,0.0216,0.0249,0.0284,0.0324,0.0459,0.0249,0.0251,0.0253,0,-0.0716,-0.0734,-0.0775,-0.0766,-0.0763,-0.0761,-0.0704,-0.0673,-0.0559,-0.0504,-0.0408,-0.0321,-0.0205,-0.0173,0.0029,-0.0019,0.0081,0.0167,0.0175,0.0253,0.0285,0.0431,0.049,0.0662,0.0272,0.0271,0.0269,0,-0.0784,-0.0803,-0.0842,-0.0838,-0.0816,-0.0817,-0.0795,-0.0704,-0.0671,-0.0555,-0.0512,-0.0357,-0.0279,-0.0127,0.006,0.0044,0.0282,0.0286,0.042,0.0424,0.0516,0.0525,0.0759,0.0413,0.0412,0.0412,0.0412,0,-0.0848,-0.0879,-0.0884,-0.0906,-0.0947,-0.0892,-0.0896,-0.0847,-0.0755,-0.0713,-0.0566,-0.049,-0.0267,-0.0099,0.0059,0.0293,0.0289,0.0428,0.0473,0.049,0.0495,0.0695,0.0759,0.0417,0.0416,0.0415,0.0414,0,-0.092,-0.0921,-0.0971,-0.0977,-0.0988,-0.1012,-0.0988,-0.0974,-0.0879,-0.0816,-0.0785,-0.0576,-0.035,-0.0115,0.015,0.0291,0.0622,0.0577,0.058,0.0622,0.0889,0.0945,0.1224,0.1323,0.0749,0.0751,0.0753,0,-0.0959,-0.0997,-0.1043,-0.108,-0.1094,-0.1116,-0.1129,-0.1054,-0.1024,-0.0864,-0.0835,-0.0607,-0.042,0.0007,0.0302,0.0611,0.0732,0.0802,0.0778,0.0929,0.1026,0.1065,0.113,0.0872,0.0874,0.0876,0.0878,0,-0.1035,-0.1053,-0.1093,-0.118,-0.1221,-0.1252,-0.1256,-0.1253,-0.1144,-0.1059,-0.0899,-0.0735,-0.0303,0.0099,0.0503,0.0675,0.0942,0.0853,0.1028,0.1162,0.1206,0.1313,0.0738,0.0897,0.0895,0.0894,0.0893,0.0892,-0.1083,-0.1135,-0.1194,-0.1273,-0.1324,-0.137,-0.1388,-0.1353,-0.13,-0.1154,-0.0971,-0.0686,-0.0083,0.0513,0.0733,0.1178,0.1116,0.1283,0.1345,0.1374,0.1464,0.0921,0.1113,0.1112,0.1112,0.1111,0.1111,0,-0.1134,-0.1198,-0.1281,-0.1366,-0.1434,-0.1437,-0.1455,-0.1435,-0.1373,-0.1192,-0.0995,-0.034,0.0255,0.0793,0.1455,0.1672,0.1712,0.1759,0.1835,0.1882,0.1432,0.1429,0.1678,0.1678,0.1677,0.1677,0.1677,0.1677,-0.1163,-0.1256,-0.1306,-0.1438,-0.1495,-0.1547,-0.1552,-0.1505,-0.1378,-0.1064,-0.0711,-0.0403,0.041,0.1538,0.2139,0.2161,0.2342,0.2302,0.2405,0.2098,0.2058,0.2019,0.2035,0.2406,0.2407,0.2839,0.2843,0.2846]}],[{"header":{"parameterUnit":"m.s-1","parameterCategory":2,"la1":30.2991,"la2":30.254,"lo1":-89.0895,"lo2":-89.0444,"dx":0.0017,"dy":0.0017,"nx":28,"ny":28,"refTime":"2023-01-22T03:00:00:Z","depth":"2","parameterNumber":2,"parameterNumberName":"U-component_of_CURRENTS"},"data":[0,0,0,0,0,0,0,0,0,0,0,0,0,0,0,0,0,0,0,0,0,0,0,0,0,0,0,0,0,0,0,0,0,0,0,0,0,0,0,0,0,0,0,0,0,0,0,0,0,0,0,0,0,0,0,0,0,0,-0.2654,-0.2655,0,-0.2686,-0.2686,-0.2686,-0.2664,-0.2663,-0.2662,-0.2661,-0.2642,-0.2642,-0.2642,0,0,0,0,0,0,0,0,0,0,0,0,0,-0.2569,-0.2571,-0.2654,-0.2655,-0.2655,-0.2686,-0.2686,-0.2686,-0.2664,-0.2663,-0.2662,-0.2661,-0.2642,-0.2642,-0.2642,0,0,0,0,0,0,0,0,0,0,0,0,0,-0.2601,-0.2571,-0.2654,-0.265,-0.265,-0.2686,-0.2686,-0.2686,-0.2664,-0.2663,-0.2662,-0.2661,-0.2642,-0.2642,-0.2642,-0.2666,0,0,-0.2643,-0.2643,0,0,0,0,0,0,0,0,-0.26,-0.2604,-0.265,-0.265,-0.2651,-0.2672,-0.2649,-0.2678,-0.2664,-0.2656,-0.2661,-0.266,-0.265,-0.2649,-0.2655,-0.2665,-0.2665,-0.2643,-0.2643,-0.2643,-0.2643,0,0,0,0,0,0,0,-0.2597,-0.2603,-0.2664,-0.2651,-0.2651,-0.2645,-0.2648,-0.2654,-0.2656,-0.2656,-0.2656,-0.2664,-0.2649,-0.2654,-0.2654,-0.2664,-0.2643,-0.2643,-0.2643,-0.2643,-0.2685,-0.2686,0,0,0,0,0,0,-0.2601,-0.2601,-0.2663,-0.2665,-0.2625,-0.2648,-0.2651,-0.2664,-0.2657,-0.2656,-0.2665,-0.2663,-0.2655,-0.2654,-0.2653,-0.2686,-0.2643,-0.2643,-0.2644,-0.2684,-0.2685,-0.2686,0,0,0,0,0,0,-0.2599,-0.2606,-0.2662,-0.2635,-0.2642,-0.2651,-0.2665,-0.2665,-0.267,-0.2664,-0.2661,-0.2669,-0.2654,-0.2653,-0.2665,-0.2684,-0.2644,-0.2644,-0.2683,-0.2684,-0.2685,-0.2748,0,0,0,0,0,0,-0.2597,-0.2606,-0.2614,-0.2636,-0.2644,-0.269,-0.2667,-0.2667,-0.2678,-0.2676,-0.2667,-0.2664,-0.2653,-0.2665,-0.2666,-0.2684,-0.2644,-0.2681,-0.2683,-0.2685,-0.2745,-0.2752,-0.2758,0,0,0,0,0,-0.2593,-0.2612,-0.2614,-0.2621,-0.2656,-0.2691,-0.2695,-0.2694,-0.268,-0.2691,-0.2685,-0.2664,-0.2676,-0.2667,-0.2667,-0.2686,-0.2681,-0.2683,-0.2685,-0.2742,-0.2751,-0.2757,0,0,0,0,0,0,-0.2576,-0.2612,-0.2615,-0.2642,-0.2668,-0.2688,-0.2698,-0.27,-0.2705,-0.2698,-0.2683,-0.2681,-0.2699,-0.2685,-0.2675,-0.2702,-0.2673,-0.2675,-0.2717,-0.2724,-0.273,-0.2741,-0.2644,0,0,0,0,0,-0.2579,-0.2599,-0.2634,-0.2653,-0.2669,-0.2684,-0.2696,-0.2702,-0.2712,-0.2713,-0.2709,-0.2704,-0.271,-0.271,-0.2714,-0.2732,-0.2716,-0.2742,-0.2748,-0.2753,-0.2762,-0.276,-0.2767,-0.2693,-0.2693,-0.2693,0,0,-0.2574,-0.2598,-0.2608,-0.2651,-0.2667,-0.2702,-0.2688,-0.2715,-0.2741,-0.2711,-0.2736,-0.273,-0.2721,-0.2743,-0.2749,-0.2731,-0.2765,-0.2756,-0.2761,-0.2766,-0.2763,-0.277,-0.2777,-0.2694,-0.2694,-0.2694,0,0,-0.2583,-0.2602,-0.2625,-0.2656,-0.2694,-0.2712,-0.2723,-0.2753,-0.2761,-0.2789,-0.2775,-0.2784,-0.2788,-0.2793,-0.2792,-0.2836,-0.2802,-0.2829,-0.2867,-0.2866,-0.2872,-0.2877,-0.2863,-0.2867,-0.2828,-0.2828,-0.2828,0,-0.2574,-0.2612,-0.2637,-0.2675,-0.27,-0.272,-0.2755,-0.2779,-0.2807,-0.2818,-0.2802,-0.2821,-0.2815,-0.2843,-0.2859,-0.2851,-0.2837,-0.284,-0.2874,-0.2879,-0.2883,-0.2868,-0.2871,-0.2831,-0.2831,-0.2831,-0.283,0,-0.2607,-0.264,-0.2659,-0.2713,-0.2746,-0.2779,-0.2823,-0.285,-0.2857,-0.2873,-0.29,-0.2898,-0.2903,-0.2906,-0.2897,-0.2928,-0.2903,-0.2886,-0.2856,-0.2894,-0.2876,-0.2878,-0.2836,-0.2835,-0.2834,-0.2833,0,0,-0.2571,-0.2662,-0.2666,-0.2698,-0.2768,-0.2796,-0.2852,-0.2901,-0.293,-0.2949,-0.298,-0.2995,-0.2984,-0.2984,-0.2974,-0.2978,-0.2998,-0.2948,-0.2946,-0.2936,-0.2985,-0.2924,-0.292,-0.2983,-0.2984,-0.2985,-0.2959,0,-0.2582,-0.2651,-0.2699,-0.2761,-0.2798,-0.2848,-0.2901,-0.2949,-0.2976,-0.3015,-0.3019,-0.304,-0.3017,-0.3018,-0.3024,-0.3012,-0.3007,-0.3006,-0.2948,-0.2946,-0.2889,-0.2922,-0.2703,-0.2657,-0.296,-0.2961,-0.2961,0,-0.2591,-0.2638,-0.2698,-0.2787,-0.2809,-0.2852,-0.2926,-0.2975,-0.3041,-0.3063,-0.3085,-0.3088,-0.3112,-0.3079,-0.3071,-0.3069,-0.3033,-0.3015,-0.3013,-0.2937,-0.2889,-0.2668,-0.2649,-0.2964,-0.2963,-0.2963,-0.2963,0,-0.2537,-0.2633,-0.2676,-0.2707,-0.2813,-0.2847,-0.2899,-0.2976,-0.3016,-0.3084,-0.3108,-0.3137,-0.3137,-0.3121,-0.3082,-0.3078,-0.306,-0.3045,-0.2953,-0.2947,-0.274,-0.2715,-0.3029,-0.3029,-0.3029,-0.3029,-0.3029,0,-0.2521,-0.2553,-0.2654,-0.2676,-0.2731,-0.2817,-0.2873,-0.2935,-0.3018,-0.3055,-0.3113,-0.3134,-0.3146,-0.3135,-0.3102,-0.3031,-0.3067,-0.2967,-0.2942,-0.2755,-0.2733,-0.2982,-0.2977,-0.3028,-0.3028,-0.3028,-0.3028,0,-0.2446,-0.2515,-0.2568,-0.2675,-0.2704,-0.2737,-0.2844,-0.2883,-0.2976,-0.3026,-0.3045,-0.3126,-0.3119,-0.3112,-0.3085,-0.3035,-0.2991,-0.2947,-0.2727,-0.2676,-0.2875,-0.2873,-0.2859,-0.2857,-0.2855,-0.2853,-0.2852,0,-0.2414,-0.2434,-0.2536,-0.2554,-0.2596,-0.2662,-0.2704,-0.2832,-0.2871,-0.3002,-0.3008,-0.3054,-0.3051,-0.3011,-0.2935,-0.2865,-0.2926,-0.262,-0.2583,-0.2883,-0.286,-0.2862,-0.2863,-0.2326,-0.232,-0.2316,-0.2312,0,-0.2333,-0.2369,-0.2401,-0.2452,-0.2495,-0.2547,-0.2615,-0.2653,-0.279,-0.2845,-0.291,-0.2934,-0.2917,-0.2761,-0.2683,-0.2608,-0.2626,-0.2528,-0.2881,-0.2417,-0.2382,-0.2359,-0.2377,-0.2271,-0.2276,-0.2278,-0.2281,-0.2282,-0.2245,-0.225,-0.2291,-0.2324,-0.237,-0.2397,-0.2388,-0.2477,-0.2528,-0.2567,-0.2707,-0.2663,-0.2657,-0.2439,-0.2327,-0.223,-0.2403,-0.2283,-0.2296,-0.2314,-0.2271,-0.2236,-0.2089,-0.2092,-0.2095,-0.2097,-0.2099,0,-0.2129,-0.2142,-0.216,-0.2189,-0.217,-0.2248,-0.229,-0.2245,-0.2244,-0.2323,-0.235,-0.2147,-0.2066,-0.2058,-0.1859,-0.1834,-0.1798,-0.1749,-0.1696,-0.1737,-0.1773,-0.1703,-0.137,-0.1368,-0.1366,-0.1364,0,0,-0.2061,-0.2026,-0.2039,-0.1965,-0.1978,-0.1901,-0.1886,-0.185,-0.1856,-0.1798,-0.1779,-0.195,-0.2008,-0.1689,-0.1618,-0.1463,-0.1579,-0.1391,-0.1975,-0.1952,-0.1986,-0.2081,-0.202,0,0,0,0,0]},{"header":{"parameterUnit":"m.s-1","parameterCategory":2,"la1":30.2991,"la2":30.254,"lo1":-89.0895,"lo2":-89.0444,"dx":0.0017,"dy":0.0017,"nx":28,"ny":28,"refTime":"2023-01-22T03:00:00:Z","depth":"2","parameterNumber":3,"parameterNumberName":"V-component_of_CURRENTS"},"data":[0,0,0,0,0,0,0,0,0,0,0,0,0,0,0,0,0,0,0,0,0,0,0,0,0,0,0,0,0,0,0,0,0,0,0,0,0,0,0,0,0,0,0,0,0,0,0,0,0,0,0,0,0,0,0,0,0,0,-0.0275,-0.0274,0,-0.0179,-0.0178,-0.0176,-0.0112,-0.0111,-0.0111,-0.0111,0.0016,0.0019,0.0022,0,0,0,0,0,0,0,0,0,0,0,0,0,-0.0339,-0.0338,-0.0275,-0.0274,-0.0273,-0.0179,-0.0177,-0.0176,-0.0112,-0.0111,-0.0111,-0.0111,0.0015,0.0018,0.0022,0,0,0,0,0,0,0,0,0,0,0,0,0,-0.0281,-0.0338,-0.0275,-0.0232,-0.0227,-0.0179,-0.0177,-0.0175,-0.0112,-0.0111,-0.0111,-0.0111,0.0013,0.0018,0.0023,0.0045,0,0,0.0037,0.0039,0,0,0,0,0,0,0,0,-0.0285,-0.0279,-0.0239,-0.0235,-0.0229,-0.0159,-0.0153,-0.0101,-0.0112,-0.0153,-0.0111,-0.0111,-0.0042,-0.0032,-0.0012,0.0051,0.0057,0.0038,0.0041,0.0043,0.0044,0,0,0,0,0,0,0,-0.0289,-0.0282,-0.0235,-0.0238,-0.0232,-0.0195,-0.0186,-0.0143,-0.0098,-0.0149,-0.0145,-0.0138,-0.0038,-0.0017,-0.0009,0.0058,0.0038,0.0042,0.0045,0.0047,0.0163,0.0164,0,0,0,0,0,0,-0.0309,-0.0287,-0.0238,-0.0232,-0.0259,-0.0194,-0.0185,-0.018,-0.0099,-0.0087,-0.0139,-0.0136,-0.0025,-0.0014,-0.0004,0.0028,0.0043,0.0047,0.005,0.0163,0.0163,0.0164,0,0,0,0,0,0,-0.0311,-0.0306,-0.0242,-0.0259,-0.0248,-0.0194,-0.0189,-0.0178,-0.0159,-0.0092,-0.0079,-0.0131,-0.0024,-0.0011,0.0033,0.0033,0.0049,0.0053,0.0163,0.0163,0.0164,0.0092,0,0,0,0,0,0,-0.0313,-0.0307,-0.0313,-0.026,-0.0248,-0.0223,-0.0189,-0.0177,-0.0156,-0.0152,-0.0081,-0.0068,-0.0023,0.0025,0.0037,0.004,0.0057,0.0163,0.0163,0.0164,0.0094,0.009,0.0086,0,0,0,0,0,-0.0316,-0.0328,-0.0314,-0.0308,-0.0257,-0.0224,-0.0214,-0.0172,-0.0157,-0.0153,-0.0102,-0.0071,0.0037,0.0029,0.0043,0.0048,0.0162,0.0163,0.0163,0.0096,0.009,0.0086,0,0,0,0,0,0,-0.0357,-0.0321,-0.0305,-0.0305,-0.0272,-0.0214,-0.0209,-0.018,-0.0137,-0.0133,-0.0068,-0.0052,-0.0014,0.0027,0.0016,0.0084,0.0106,0.0109,0.0049,0.0045,0.0041,0.0026,0.0061,0,0,0,0,0,-0.0371,-0.0371,-0.0326,-0.0327,-0.0315,-0.0264,-0.0246,-0.0218,-0.0173,-0.0154,-0.0103,-0.0048,0.0,0.0029,0.0075,0.0111,0.0157,0.0125,0.0121,0.0117,0.0116,0.0182,0.0184,0.0166,0.0166,0.0166,0,0,-0.0388,-0.0369,-0.0368,-0.0337,-0.0308,-0.0296,-0.0252,-0.0233,-0.0218,-0.0147,-0.0114,-0.0063,0.0006,0.0046,0.0068,0.0081,0.0146,0.0118,0.0114,0.0115,0.0183,0.0185,0.0186,0.0166,0.0166,0.0166,0,0,-0.0427,-0.0405,-0.042,-0.0395,-0.0363,-0.0327,-0.0327,-0.0273,-0.0245,-0.0208,-0.0152,-0.0102,-0.0032,0.0024,0.0059,0.0063,0.012,0.0077,0.005,0.0115,0.0117,0.0119,0.0173,0.0181,0.0079,0.0079,0.0079,0,-0.0452,-0.046,-0.0419,-0.0423,-0.0409,-0.0348,-0.0354,-0.0314,-0.0252,-0.0226,-0.021,-0.0093,-0.0041,0.0025,0.0026,0.0054,0.0096,0.0058,0.0108,0.0112,0.0115,0.0171,0.018,0.0076,0.0076,0.0076,0.0077,0,-0.0496,-0.0501,-0.0507,-0.0491,-0.0468,-0.0464,-0.0406,-0.0378,-0.0339,-0.029,-0.0225,-0.0145,-0.0074,-0.0048,-0.001,0.0044,0.0067,0.009,0.0115,0.0112,0.0172,0.0183,0.0071,0.0072,0.0073,0.0074,0,0,-0.0553,-0.0544,-0.0545,-0.0554,-0.0505,-0.0494,-0.0464,-0.0417,-0.0396,-0.0323,-0.0283,-0.0194,-0.0143,-0.0099,-0.0036,0.0023,0.008,0.0059,0.0064,0.0103,0.0217,0.0256,0.0272,0.0109,0.0111,0.0112,0.0246,0,-0.0603,-0.0637,-0.0608,-0.0629,-0.0639,-0.0573,-0.0551,-0.0494,-0.0433,-0.0375,-0.0274,-0.0216,-0.0162,-0.0131,-0.0062,0.005,0.0106,0.0041,0.0222,0.0228,0.0255,0.0285,0.0235,0.0352,0.0257,0.0259,0.026,0,-0.0654,-0.0671,-0.0709,-0.0703,-0.07,-0.0699,-0.0648,-0.0618,-0.0513,-0.0462,-0.0372,-0.0289,-0.0179,-0.0145,0.0046,0.0001,0.0096,0.0179,0.0187,0.0256,0.0288,0.0342,0.0376,0.0279,0.0278,0.0276,0.0275,0,-0.0721,-0.0738,-0.0777,-0.0773,-0.0752,-0.0755,-0.0735,-0.0651,-0.0622,-0.0515,-0.0476,-0.0329,-0.0255,-0.0111,0.007,0.0056,0.0278,0.0284,0.0409,0.0413,0.0424,0.0426,0.0404,0.0404,0.0403,0.0403,0.0402,0,-0.0784,-0.0814,-0.0818,-0.084,-0.0882,-0.083,-0.0838,-0.0792,-0.0708,-0.0671,-0.0532,-0.0464,-0.0246,-0.0087,0.0065,0.0286,0.0282,0.0415,0.0457,0.0398,0.0396,0.0374,0.0369,0.0408,0.0407,0.0406,0.0405,0,-0.0854,-0.0855,-0.0904,-0.091,-0.0922,-0.0948,-0.0928,-0.0917,-0.083,-0.0775,-0.0746,-0.0551,-0.0337,-0.0109,0.0144,0.0278,0.0479,0.0549,0.0465,0.0494,0.0567,0.0556,0.0701,0.0704,0.0706,0.0708,0.071,0,-0.0893,-0.093,-0.0976,-0.1012,-0.1027,-0.1051,-0.1065,-0.0996,-0.0971,-0.0825,-0.0802,-0.0587,-0.0413,-0.001,0.0264,0.0557,0.0549,0.0662,0.063,0.0575,0.0601,0.0587,0.0574,0.0614,0.0615,0.0615,0.0616,0,-0.0968,-0.0987,-0.1025,-0.1112,-0.1153,-0.1184,-0.1193,-0.1191,-0.1089,-0.1015,-0.0871,-0.072,-0.0321,0.0013,0.0396,0.0547,0.0616,0.0683,0.0671,0.0543,0.0503,0.0525,0.0513,0.062,0.062,0.062,0.0619,0.0619,-0.1017,-0.1069,-0.1126,-0.1204,-0.1255,-0.1302,-0.132,-0.1289,-0.1245,-0.111,-0.0946,-0.0691,-0.0343,0.0199,0.0475,0.0711,0.0701,0.0746,0.074,0.0735,0.0697,0.0664,0.0804,0.0804,0.0805,0.0805,0.0805,0,-0.107,-0.1132,-0.1214,-0.1298,-0.1363,-0.137,-0.1389,-0.1365,-0.131,-0.1151,-0.0973,-0.0589,-0.0189,0.0164,0.0554,0.0795,0.0757,0.0814,0.0723,0.0717,0.0711,0.0669,0.077,0.0771,0.0772,0.0772,0,0,-0.1099,-0.119,-0.1237,-0.1367,-0.1425,-0.1476,-0.1483,-0.1427,-0.1311,-0.1148,-0.0951,-0.0651,-0.0195,0.0079,0.039,0.0593,0.0578,0.0594,0.0593,0.044,0.0432,0.0643,0.0568,0,0,0,0,0]}],[{"header":{"parameterUnit":"m.s-1","parameterCategory":2,"la1":30.2991,"la2":30.254,"lo1":-89.0895,"lo2":-89.0444,"dx":0.0017,"dy":0.0017,"nx":28,"ny":28,"refTime":"2023-01-22T03:00:00:Z","depth":"4","parameterNumber":2,"parameterNumberName":"U-component_of_CURRENTS"},"data":[0,0,0,0,0,0,0,0,0,0,0,0,0,0,0,0,0,0,0,0,0,0,0,0,0,0,0,0,0,0,0,0,0,0,0,0,0,0,0,0,0,0,0,0,0,0,0,0,0,0,0,0,0,0,0,0,0,0,-0.1833,-0.1833,0,-0.1899,-0.19,-0.19,-0.194,-0.194,-0.194,-0.1941,-0.1998,-0.1999,-0.2,0,0,0,0,0,0,0,0,0,0,0,0,0,-0.1736,-0.1738,-0.1832,-0.1833,-0.1835,-0.1899,-0.19,-0.1901,-0.194,-0.194,-0.194,-0.1941,-0.1998,-0.1999,-0.2001,0,0,0,0,0,0,0,0,0,0,0,0,0,-0.1786,-0.1738,-0.1832,-0.1863,-0.1867,-0.1899,-0.19,-0.1901,-0.194,-0.194,-0.1941,-0.1941,-0.1997,-0.1999,-0.2001,-0.2001,0,0,-0.2006,-0.2007,0,0,0,0,0,0,0,0,-0.1783,-0.1789,-0.1858,-0.1861,-0.1865,-0.1914,-0.1887,-0.1935,-0.1939,-0.191,-0.1941,-0.1941,-0.197,-0.1974,-0.1982,-0.2004,-0.2006,-0.2006,-0.2007,-0.2008,-0.2009,0,0,0,0,0,0,0,-0.178,-0.1787,-0.1857,-0.1859,-0.1864,-0.1873,-0.1881,-0.1896,-0.1934,-0.1912,-0.1916,-0.1927,-0.1972,-0.1981,-0.1984,-0.2007,-0.2006,-0.2008,-0.2009,-0.201,-0.2102,-0.2103,0,0,0,0,0,0,-0.1775,-0.1783,-0.1855,-0.1859,-0.1827,-0.1875,-0.1883,-0.1896,-0.1934,-0.1941,-0.1926,-0.1928,-0.1977,-0.1982,-0.1986,-0.2065,-0.2008,-0.201,-0.2011,-0.2101,-0.2102,-0.2104,0,0,0,0,0,0,-0.1773,-0.1781,-0.1852,-0.1824,-0.1834,-0.1876,-0.189,-0.1897,-0.1937,-0.1945,-0.1952,-0.1963,-0.1978,-0.1984,-0.2031,-0.2064,-0.2011,-0.2012,-0.2099,-0.2101,-0.2103,-0.2173,0,0,0,0,0,0,-0.177,-0.178,-0.1803,-0.1824,-0.1836,-0.1894,-0.189,-0.1898,-0.1942,-0.1946,-0.1978,-0.1982,-0.1979,-0.2029,-0.2033,-0.2066,-0.2014,-0.2097,-0.21,-0.2102,-0.2169,-0.2177,-0.2184,0,0,0,0,0,-0.1766,-0.1791,-0.1804,-0.1813,-0.1861,-0.1896,-0.1903,-0.1932,-0.1943,-0.1969,-0.1993,-0.1983,-0.2048,-0.2032,-0.2036,-0.207,-0.2096,-0.2099,-0.2102,-0.2165,-0.2175,-0.2184,0,0,0,0,0,0,-0.1763,-0.1798,-0.1812,-0.1848,-0.1881,-0.1904,-0.1935,-0.1951,-0.199,-0.2003,-0.2005,-0.2012,-0.2064,-0.2058,-0.204,-0.2103,-0.2068,-0.2073,-0.2115,-0.2124,-0.2132,-0.2133,-0.2015,0,0,0,0,0,-0.1772,-0.1801,-0.1833,-0.1865,-0.1885,-0.1916,-0.194,-0.1961,-0.199,-0.201,-0.2033,-0.2055,-0.2075,-0.2094,-0.211,-0.2149,-0.2129,-0.2172,-0.2179,-0.2186,-0.219,-0.2188,-0.2195,-0.2114,-0.2114,-0.2114,0,0,-0.1779,-0.1804,-0.1822,-0.1867,-0.1896,-0.1934,-0.1932,-0.198,-0.2019,-0.2009,-0.2077,-0.2088,-0.2092,-0.2136,-0.2158,-0.2139,-0.2199,-0.219,-0.2195,-0.2196,-0.2192,-0.2199,-0.2206,-0.2116,-0.2116,-0.2115,0,0,-0.1799,-0.1833,-0.1863,-0.1896,-0.1948,-0.1968,-0.1989,-0.2035,-0.2066,-0.2123,-0.2125,-0.2159,-0.2196,-0.2205,-0.221,-0.227,-0.2241,-0.2278,-0.232,-0.2318,-0.2325,-0.233,-0.2315,-0.2318,-0.228,-0.2281,-0.2281,0,-0.1809,-0.1848,-0.1878,-0.1917,-0.195,-0.1988,-0.2028,-0.2066,-0.2124,-0.2149,-0.2157,-0.2215,-0.2226,-0.2263,-0.2288,-0.2288,-0.2276,-0.2285,-0.2328,-0.2332,-0.2337,-0.232,-0.2323,-0.2284,-0.2284,-0.2284,-0.2283,0,-0.1841,-0.1888,-0.1911,-0.1971,-0.2012,-0.2056,-0.2107,-0.2157,-0.2197,-0.2224,-0.2285,-0.2301,-0.2328,-0.2342,-0.2338,-0.2378,-0.2356,-0.2338,-0.2303,-0.2349,-0.2329,-0.233,-0.229,-0.2288,-0.2287,-0.2286,0,0,-0.1816,-0.1914,-0.1925,-0.1965,-0.2046,-0.2078,-0.2152,-0.2213,-0.2258,-0.2314,-0.2362,-0.2405,-0.2411,-0.2418,-0.2418,-0.2426,-0.2452,-0.2404,-0.2402,-0.2387,-0.2443,-0.2296,-0.2283,-0.2443,-0.2444,-0.2445,-0.2416,0,-0.1832,-0.1907,-0.1957,-0.2036,-0.2076,-0.2141,-0.2203,-0.2268,-0.2318,-0.2378,-0.2403,-0.2448,-0.244,-0.246,-0.247,-0.246,-0.2461,-0.2461,-0.2402,-0.24,-0.2262,-0.2282,-0.2447,-0.2417,-0.2417,-0.2418,-0.2418,0,-0.1837,-0.1888,-0.1965,-0.2066,-0.2092,-0.2152,-0.2247,-0.2305,-0.2388,-0.243,-0.2475,-0.2494,-0.2531,-0.2512,-0.2512,-0.2514,-0.2488,-0.2471,-0.2469,-0.2307,-0.2256,-0.2361,-0.242,-0.242,-0.242,-0.242,-0.242,0,-0.178,-0.1891,-0.1953,-0.1989,-0.2107,-0.2163,-0.2228,-0.232,-0.2366,-0.2459,-0.2493,-0.2539,-0.2558,-0.2548,-0.252,-0.2522,-0.25,-0.2491,-0.2331,-0.232,-0.2431,-0.2425,-0.2481,-0.2481,-0.2481,-0.2481,-0.2481,0,-0.1752,-0.1806,-0.194,-0.197,-0.2048,-0.2143,-0.2223,-0.2296,-0.239,-0.2425,-0.2509,-0.2525,-0.2569,-0.2559,-0.2533,-0.2425,-0.2503,-0.2334,-0.23,-0.2461,-0.2459,-0.2432,-0.2426,-0.248,-0.248,-0.248,-0.248,0,-0.1669,-0.176,-0.1838,-0.1977,-0.2021,-0.2075,-0.2209,-0.2251,-0.236,-0.2407,-0.2436,-0.2519,-0.2503,-0.2515,-0.2493,-0.2411,-0.2345,-0.2286,-0.2454,-0.2432,-0.2166,-0.2165,-0.2104,-0.2099,-0.2094,-0.209,-0.2087,0,-0.163,-0.1663,-0.1816,-0.1855,-0.1923,-0.2019,-0.2073,-0.2214,-0.2244,-0.2368,-0.2361,-0.2411,-0.2439,-0.2286,-0.2327,-0.2255,-0.2227,-0.2178,-0.2177,-0.2152,-0.2127,-0.2133,-0.2138,-0.208,-0.2078,-0.2077,-0.2076,0,-0.1539,-0.1612,-0.1667,-0.1752,-0.1827,-0.189,-0.1974,-0.199,-0.2123,-0.2248,-0.2225,-0.2216,-0.2197,-0.2177,-0.2133,-0.2084,-0.2206,-0.213,-0.2139,-0.2138,-0.2122,-0.2103,-0.2113,-0.206,-0.2062,-0.2064,-0.2065,0,-0.1465,-0.1485,-0.1564,-0.1618,-0.1704,-0.1721,-0.1798,-0.183,-0.1886,-0.2032,-0.2018,-0.2081,-0.217,-0.2086,-0.2046,-0.1988,-0.196,-0.1893,-0.1914,-0.1932,-0.1889,-0.1844,-0.166,0,0,0,0,0,-0.1381,-0.1378,-0.1418,-0.147,-0.1546,-0.1586,-0.1702,-0.1779,-0.1919,-0.1849,-0.1929,-0.1906,-0.187,-0.1908,-0.1808,-0.196,-0.1962,-0.1836,-0.1896,-0.1971,-0.1989,-0.1953,0,0,0,0,0,0,-0.1321,-0.1353,-0.1363,-0.132,-0.1321,-0.1383,-0.1451,-0.1552,-0.1524,-0.1677,-0.1663,-0.1777,-0.1764,-0.1882,-0.176,-0.1769,-0.1765,-0.1887,-0.1882,-0.196,-0.1977,-0.1992,-0.1961,0,0,0,0,0]},{"header":{"parameterUnit":"m.s-1","parameterCategory":2,"la1":30.2991,"la2":30.254,"lo1":-89.0895,"lo2":-89.0444,"dx":0.0017,"dy":0.0017,"nx":28,"ny":28,"refTime":"2023-01-22T03:00:00:Z","depth":"4","parameterNumber":3,"parameterNumberName":"V-component_of_CURRENTS"},"data":[0,0,0,0,0,0,0,0,0,0,0,0,0,0,0,0,0,0,0,0,0,0,0,0,0,0,0,0,0,0,0,0,0,0,0,0,0,0,0,0,0,0,0,0,0,0,0,0,0,0,0,0,0,0,0,0,0,0,-0.0177,-0.0176,0,-0.0111,-0.011,-0.0109,-0.0065,-0.0065,-0.0065,-0.0065,0.0034,0.0036,0.0039,0,0,0,0,0,0,0,0,0,0,0,0,0,-0.0212,-0.0212,-0.0177,-0.0176,-0.0175,-0.0111,-0.011,-0.0109,-0.0065,-0.0065,-0.0065,-0.0064,0.0033,0.0036,0.0039,0,0,0,0,0,0,0,0,0,0,0,0,0,-0.0175,-0.0212,-0.0177,-0.0147,-0.0144,-0.0111,-0.011,-0.0108,-0.0065,-0.0065,-0.0065,-0.0064,0.0032,0.0036,0.0039,0.0059,0,0,0.0051,0.0053,0,0,0,0,0,0,0,0,-0.0177,-0.0173,-0.0152,-0.0149,-0.0146,-0.0098,-0.0086,-0.0051,-0.0065,-0.0093,-0.0065,-0.0064,-0.0009,-0.0001,0.0013,0.0064,0.0068,0.0051,0.0054,0.0055,0.0056,0,0,0,0,0,0,0,-0.018,-0.0176,-0.0148,-0.0152,-0.0148,-0.012,-0.0114,-0.0079,-0.005,-0.009,-0.0088,-0.0084,-0.0006,0.0009,0.0016,0.007,0.0051,0.0055,0.0057,0.0058,0.0157,0.0157,0,0,0,0,0,0,-0.0195,-0.0179,-0.0151,-0.0147,-0.0164,-0.012,-0.0113,-0.0112,-0.0051,-0.0043,-0.0084,-0.0082,0.0003,0.0011,0.0019,0.0045,0.0055,0.0059,0.0061,0.0156,0.0157,0.0157,0,0,0,0,0,0,-0.0196,-0.0193,-0.0153,-0.0162,-0.0156,-0.012,-0.0117,-0.011,-0.0099,-0.0047,-0.0037,-0.008,0.0003,0.0014,0.0048,0.0049,0.006,0.0064,0.0156,0.0156,0.0157,0.0098,0,0,0,0,0,0,-0.0197,-0.0194,-0.0201,-0.0164,-0.0156,-0.0141,-0.0118,-0.0109,-0.0097,-0.0094,-0.0041,-0.0031,0.0004,0.0042,0.0052,0.0055,0.0067,0.0155,0.0156,0.0157,0.0099,0.0096,0.0094,0,0,0,0,0,-0.0199,-0.021,-0.0202,-0.0199,-0.0166,-0.0142,-0.0135,-0.0107,-0.0098,-0.0095,-0.0057,-0.0033,0.0054,0.0046,0.0057,0.0061,0.0155,0.0156,0.0157,0.0101,0.0097,0.0094,0,0,0,0,0,0,-0.0228,-0.0205,-0.0196,-0.0199,-0.0177,-0.0135,-0.0134,-0.0114,-0.0082,-0.008,-0.003,-0.0018,0.0013,0.0046,0.0036,0.0093,0.0109,0.0112,0.0063,0.006,0.0057,0.0041,0.007,0,0,0,0,0,-0.024,-0.0243,-0.0212,-0.0217,-0.0208,-0.0173,-0.0162,-0.0143,-0.0109,-0.0095,-0.0056,-0.0013,0.0026,0.0048,0.0086,0.0116,0.0149,0.0128,0.0125,0.0122,0.0118,0.0169,0.017,0.016,0.016,0.016,0,0,-0.0253,-0.0242,-0.0244,-0.0224,-0.0205,-0.0197,-0.0165,-0.0154,-0.0144,-0.0089,-0.0066,-0.0025,0.0031,0.0064,0.0081,0.0091,0.0142,0.0123,0.012,0.0118,0.0169,0.017,0.0171,0.016,0.016,0.016,0,0,-0.0283,-0.0271,-0.0284,-0.0268,-0.0247,-0.0222,-0.0223,-0.0185,-0.0165,-0.0138,-0.0094,-0.0054,0.0002,0.0046,0.0075,0.0081,0.0122,0.0093,0.007,0.0119,0.012,0.0121,0.0159,0.0164,0.0095,0.0095,0.0095,0,-0.0302,-0.0312,-0.0284,-0.0288,-0.0281,-0.0238,-0.0246,-0.0216,-0.0171,-0.0154,-0.0141,-0.005,-0.0005,0.0045,0.0049,0.0073,0.0103,0.0074,0.0113,0.0115,0.0118,0.0156,0.0163,0.0093,0.0093,0.0093,0.0093,0,-0.0334,-0.0343,-0.0349,-0.0341,-0.0327,-0.0327,-0.0286,-0.0268,-0.0241,-0.0206,-0.0158,-0.0092,-0.0038,-0.0013,0.0019,0.0062,0.0077,0.0098,0.0116,0.0115,0.0156,0.0164,0.0089,0.009,0.009,0.0091,0,0,-0.0374,-0.0375,-0.0378,-0.039,-0.0357,-0.0353,-0.0334,-0.0304,-0.0295,-0.0238,-0.0215,-0.0137,-0.0099,-0.0063,-0.0009,0.0038,0.008,0.0069,0.0073,0.0096,0.018,0.0168,0.0176,0.0106,0.0107,0.0108,0.02,0,-0.0411,-0.0442,-0.0424,-0.045,-0.046,-0.0418,-0.0406,-0.037,-0.0327,-0.0291,-0.021,-0.0169,-0.0117,-0.0094,-0.0037,0.0054,0.0098,0.0053,0.0188,0.0192,0.0173,0.0184,0.0111,0.0206,0.0208,0.0209,0.021,0,-0.0446,-0.0464,-0.0502,-0.0512,-0.0513,-0.052,-0.0498,-0.048,-0.0408,-0.0372,-0.0306,-0.0241,-0.0153,-0.0119,0.0034,0.0001,0.008,0.0149,0.0154,0.0169,0.0194,0.0212,0.0224,0.0223,0.0222,0.0221,0.022,0,-0.0491,-0.0517,-0.0556,-0.0557,-0.0557,-0.057,-0.0565,-0.0512,-0.0497,-0.0425,-0.0401,-0.0286,-0.0228,-0.0111,0.0041,0.0035,0.0205,0.0217,0.028,0.028,0.0288,0.0286,0.031,0.031,0.031,0.0309,0.0309,0,-0.053,-0.0563,-0.059,-0.0611,-0.0662,-0.0632,-0.0657,-0.0631,-0.058,-0.0561,-0.0454,-0.0407,-0.0224,-0.0099,0.0027,0.0182,0.0199,0.0276,0.0305,0.0261,0.0255,0.0293,0.029,0.0313,0.0312,0.0311,0.0311,0,-0.0571,-0.0585,-0.0638,-0.0668,-0.069,-0.0723,-0.0737,-0.0738,-0.0684,-0.0655,-0.0635,-0.0487,-0.0323,-0.0137,0.0069,0.016,0.031,0.0357,0.0294,0.0318,0.0351,0.0344,0.0425,0.0425,0.0426,0.0426,0.0426,0,-0.0591,-0.0626,-0.0697,-0.074,-0.0766,-0.0809,-0.0835,-0.0801,-0.0791,-0.0701,-0.0686,-0.0528,-0.0412,-0.0123,0.0063,0.0306,0.0335,0.04,0.0375,0.0343,0.0364,0.0356,0.0349,0.0427,0.0427,0.0427,0.0427,0,-0.0632,-0.0665,-0.0709,-0.0806,-0.0861,-0.0908,-0.0938,-0.0935,-0.0876,-0.0835,-0.0712,-0.0552,-0.0363,-0.0131,0.0067,0.0236,0.0352,0.0404,0.0404,0.0381,0.0347,0.0365,0.0357,0.0428,0.0428,0.0428,0.0428,0,-0.0662,-0.0707,-0.0775,-0.0854,-0.0931,-0.0978,-0.0987,-0.0957,-0.0933,-0.082,-0.0783,-0.0566,-0.043,-0.0168,0.001,0.0184,0.0214,0.0248,0.0256,0.0257,0.0181,0.0112,0.0146,0,0,0,0,0,-0.068,-0.0736,-0.0818,-0.0899,-0.0974,-0.1015,-0.104,-0.1023,-0.0971,-0.0894,-0.0829,-0.0649,-0.0362,-0.0233,-0.0061,-0.0002,0.0229,0.0199,0.0268,0.0434,0.0433,0.0372,0,0,0,0,0,0,-0.0695,-0.0774,-0.0818,-0.0917,-0.0977,-0.1048,-0.1063,-0.1029,-0.0968,-0.0893,-0.0733,-0.0634,-0.0348,-0.0457,-0.0065,-0.0012,0.0047,0.0343,0.0346,0.0435,0.0434,0.0433,0.0369,0,0,0,0,0]}]]